Tracking 30970 objects as of 3-Jul-2025
HD Live streaming from Space Station
objects crossing your sky now

STARLINK-3285

Track STARLINK-3285 now!
10-day predictions
STARLINK-3285 is classified as:


NORAD ID: 50181
Int'l Code: 2021-125AB
Perigee: 546.2 km
Apogee: 547.6 km
Inclination: 53.2 °
Period: 95.4 minutes
Semi major axis: 6917 km
RCS: Unknown
Launch date: December 18, 2021
Source: United States (US)
Launch site: AIR FORCE WESTERN TEST RANGE (AFWTR)
Your satellite tracking list
Your tracking list is empty




NASA's NSSDC Master Catalog

Two Line Element Set (TLE):
1 50181U 21125AB  25183.61429953 -.00000547  00000-0 -16311-4 0  9998
2 50181  53.2179 291.7612 0001063  88.4225 271.6889 15.08833708198856
Source of the keplerian elements: AFSPC